Content
SEND FEEDBACK

Daily
Averages
Monthly
Summary
United States of America

INARAJAN, GUAM


Home > North America > United States > Guam
Elevation: 280 feet     Latitude: 13 18N     Longitude: 144 44E

WEATHER
 
SELECT A DAY
Number of Records: 341,794;   Date Range: 1/1/95 - 7/23/14
 
SHARE

PRINT THIS DATA

[ ← Previous Day ]
WEATHER ALMANAC - OCTOBER 21, 2013
[ Next Day → ]
[ °C ]   °F
Weather ElementAverageHighLow
Temperature79.3 °F86.2 °F (12:58 pm)73.4 °F (2:03 am)
Dewpoint76 °F78.8 °F (9:23 am)70.7 °F (3:58 pm)
Humidity89.9 %100 % (1:26 am)74 % (12:48 pm)
Barometer29.76 in29.82 in (9:23 pm)29.70 in (3:58 am)
Wind Speed11.2 mph17.3 mph (12:58 pm)
Wind Gust24.2 mph (4:24 am)
Weather ElementAverage
Visibility9.6 mi
Wind DirectionSSW (195.6 °)

Weather ElementTotal
Precipitation0.15 in
Cooling Degree Days14.8 (Base 65)
Growing Degree Days29.8 (Base 50)
Averaged from 95 records on October 21, 2013
WEATHER CONDITIONS BREAKOUT
WIND DIRECTION BREAKOUT
WEATHER BY HOUR - OCTOBER 21, 2013
[ °C ]   °F
Local TimeTemperatureDewpointHumidityBarometerVisibilityWind DirectionWind SpeedGust SpeedPrecipitationEventsConditions
1:03 AM78.8 °F77.0 °F94 %29.76 in10.0 miSSW (200°)10.4 mphLight Drizzle
1:08 AM78.8 °F77.0 °F94 %29.76 in9.0 miSSW (210°)10.4 mphRainLight Rain
1:13 AM78.8 °F77.0 °F94 %29.76 in8.0 miSSW (210°)10.4 mphRainHeavy Rain
1:18 AM78.8 °F77.0 °F94 %29.76 in8.0 miSSW (210°)11.5 mphRainLight Rain
1:21 AM78.8 °F77.0 °F94 %29.76 in9.0 miSW (220°)10.4 mphMostly Cloudy
1:26 AM77.0 °F77.0 °F100 %29.76 in10.0 miSSW (210°)6.9 mphScattered Clouds
1:51 AM77.0 °F77.0 °F100 %29.76 in10.0 miSSW (200°)9.2 mphMostly Cloudy
1:56 AM77.0 °F75.2 °F94 %29.76 in10.0 miSSW (200°)9.2 mphScattered Clouds
1:58 AM76.6 °F75.4 °F96 %29.72 in10.0 miSSW (200°)10.4 mph0.02 inScattered Clouds
2:03 AM73.4 °F73.4 °F100 %29.75 in10.0 miSSW (200°)9.2 mphMostly Cloudy
2:13 AM73.4 °F71.6 °F94 %29.75 in10.0 miSSW (200°)11.5 mphMostly Cloudy
2:18 AM73.4 °F71.6 °F94 %29.75 in10.0 miSSW (200°)11.5 mphMostly Cloudy
2:33 AM78.8 °F77.0 °F94 %29.75 in10.0 miSouth (190°)11.5 mphMostly Cloudy
2:37 AM78.8 °F77.0 °F94 %29.75 in10.0 miSouth (190°)11.5 mphRainLight Rain
2:42 AM78.8 °F77.0 °F94 %29.74 in10.0 miSouth (190°)15.0 mphLight Drizzle
2:47 AM78.8 °F77.0 °F94 %29.74 in10.0 miSSW (200°)13.8 mphMostly Cloudy
2:52 AM77.0 °F77.0 °F100 %29.74 in10.0 miSSW (200°)12.7 mph19.6 mphLight Drizzle
2:58 AM77.2 °F76.1 °F96 %29.71 in10.0 miSouth (190°)11.5 mph19.6 mph0.01 inRainLight Rain
3:07 AM77.0 °F75.2 °F94 %29.74 in10.0 miSSW (200°)11.5 mphOvercast
3:37 AM78.8 °F77.0 °F94 %29.73 in10.0 miSouth (180°)15.0 mphRainHeavy Rain
3:48 AM78.8 °F77.0 °F94 %29.73 in10.0 miSouth (190°)12.7 mphMostly Cloudy
3:53 AM77.0 °F77.0 °F100 %29.73 in10.0 miSSW (200°)10.4 mphMostly Cloudy
3:58 AM78.8 °F77.0 °F94 %29.70 in10.0 miSouth (190°)11.5 mph0.09 inMostly Cloudy
4:00 AM78.8 °F77.0 °F94 %29.73 in10.0 miSouth (190°)11.5 mphRainLight Rain
4:10 AM78.8 °F77.0 °F94 %29.73 in10.0 miSSW (200°)10.4 mph18.4 mphRainLight Rain
4:14 AM78.8 °F77.0 °F94 %29.73 in10.0 miSSW (200°)12.7 mph18.4 mphMostly Cloudy
4:19 AM78.8 °F77.0 °F94 %29.73 in9.0 miSSW (200°)16.1 mphMostly Cloudy
4:24 AM78.8 °F75.2 °F89 %29.73 in4.0 miSSW (200°)16.1 mph24.2 mphMostly Cloudy
4:29 AM77.0 °F75.2 °F94 %29.73 in4.0 miSSW (200°)10.4 mph24.2 mphMostly Cloudy
4:34 AM77.0 °F75.2 °F94 %29.73 in10.0 miSSW (210°)9.2 mph23.0 mphScattered Clouds
4:58 AM77.5 °F76.3 °F96 %29.71 in10.0 miSSW (200°)8.1 mph0.03 inClear
5:58 AM78.3 °F76.8 °F95 %29.73 in10.0 miSSW (200°)12.7 mphClear
6:58 AM78.8 °F77.0 °F94 %29.75 in10.0 miSSW (200°)9.2 mphClear
7:58 AM78.3 °F74.7 °F89 %29.77 in10.0 miSW (220°)15.0 mphPartly Cloudy
8:58 AM82.4 °F77.9 °F86 %29.77 in10.0 miSouth (190°)15.0 mphClear
9:23 AM82.4 °F78.8 °F89 %29.80 in10.0 miSSW (200°)10.4 mph21.9 mphMostly Cloudy
9:28 AM82.4 °F77.0 °F84 %29.80 in10.0 miSSW (210°)11.5 mphMostly Cloudy
9:38 AM82.4 °F77.0 °F84 %29.80 in10.0 miSSW (210°)12.7 mph24.2 mphMostly Cloudy
9:43 AM82.4 °F77.0 °F84 %29.80 in10.0 miSSW (210°)12.7 mphScattered Clouds
9:58 AM82.2 °F77.2 °F85 %29.78 in10.0 miSSW (200°)15.0 mph18.4 mphPartly Cloudy
10:28 AM82.4 °F77.0 °F84 %29.80 in10.0 miSSW (200°)11.5 mphMostly Cloudy
10:33 AM82.4 °F77.0 °F84 %29.80 in10.0 miSSW (210°)10.4 mphMostly Cloudy
10:38 AM82.4 °F77.0 °F84 %29.80 in10.0 miSSW (200°)12.7 mphScattered Clouds
10:58 AM82.6 °F77.7 °F85 %29.76 in10.0 miSSW (210°)11.5 mphScattered Clouds
11:03 AM84.2 °F78.8 °F84 %29.79 in10.0 miSouth (190°)16.1 mphMostly Cloudy
11:18 AM84.2 °F78.8 °F84 %29.78 in10.0 miSouth (190°)16.1 mphMostly Cloudy
11:23 AM84.2 °F78.8 °F84 %29.77 in10.0 miSouth (190°)15.0 mph20.7 mphMostly Cloudy
11:28 AM84.2 °F78.8 °F84 %29.77 in10.0 miSSW (210°)12.7 mph20.7 mphMostly Cloudy
11:58 AM83.3 °F76.8 °F81 %29.72 in10.0 miSSW (210°)13.8 mph23.0 mphMostly Cloudy
12:48 PM86.0 °F77.0 °F74 %29.74 in10.0 miSSW (200°)13.8 mph23.0 mphMostly Cloudy
12:58 PM86.2 °F77.9 °F76 %29.71 in10.0 miSouth (190°)17.3 mph21.9 mphMostly Cloudy
1:18 PM80.6 °F73.4 °F79 %29.73 in10.0 miSouth (190°)15.0 mphMostly Cloudy
1:28 PM80.6 °F73.4 °F79 %29.73 in10.0 miSouth (180°)15.0 mphMostly Cloudy
1:33 PM82.4 °F73.4 °F74 %29.74 in10.0 miSouth (190°)13.8 mphMostly Cloudy
1:43 PM80.6 °F73.4 °F79 %29.73 in10.0 miSSW (200°)12.7 mphScattered Clouds
1:53 PM80.6 °F73.4 °F79 %29.73 in10.0 miSouth (190°)11.5 mphMostly Cloudy
1:58 PM82.0 °F75.2 °F80 %29.71 in10.0 miSouth (190°)12.7 mphMostly Cloudy
2:18 PM84.2 °F77.0 °F79 %29.74 in10.0 miSouth (180°)9.2 mphMostly Cloudy
2:23 PM84.2 °F77.0 °F79 %29.73 in10.0 miSouth (180°)11.5 mphMostly Cloudy
2:25 PM84.2 °F77.0 °F79 %29.73 in10.0 miSouth (180°)9.2 mphLight Drizzle
2:30 PM82.4 °F77.0 °F84 %29.73 in10.0 miSouth (180°)9.2 mphLight Drizzle
2:35 PM78.8 °F75.2 °F89 %29.73 in9.0 miSouth (190°)13.8 mphMostly Cloudy
2:40 PM78.8 °F77.0 °F94 %29.73 in0.8 miSSE (160°)5.8 mph24.2 mphMostly Cloudy
2:42 PM80.6 °F77.0 °F89 %29.73 in0.8 miSouth (180°)5.8 mph24.2 mphRainLight Rain
2:52 PM78.8 °F77.0 °F94 %29.73 in8.0 miSouth (190°)12.7 mphLight Drizzle
2:54 PM78.8 °F75.2 °F89 %29.73 in10.0 miSSW (200°)12.7 mphOvercast
2:58 PM79.0 °F76.1 °F91 %29.70 in10.0 miSouth (190°)12.7 mph0.00 inOvercast
3:18 PM77.0 °F73.4 °F89 %29.73 in10.0 miSouth (180°)11.5 mphMostly Cloudy
3:28 PM78.8 °F73.4 °F83 %29.73 in10.0 miSouth (180°)12.7 mphMostly Cloudy
3:33 PM80.6 °F73.4 °F79 %29.73 in10.0 miSSW (200°)10.4 mphScattered Clouds
3:58 PM77.9 °F70.7 °F78 %29.70 in10.0 miSouth (190°)13.8 mphClear
4:58 PM81.1 °F75.2 °F82 %29.72 in10.0 miSSW (210°)8.1 mphClear
5:58 PM79.0 °F76.1 °F91 %29.73 in10.0 miSSW (200°)8.1 mphPartly Cloudy
6:58 PM75.6 °F73.6 °F94 %29.75 in10.0 miSSW (200°)9.2 mphScattered Clouds
7:48 PM75.2 °F73.4 °F94 %29.80 in10.0 miSSW (200°)9.2 mphScattered Clouds
7:58 PM75.2 °F73.2 °F94 %29.77 in10.0 miSSW (200°)9.2 mphMostly Cloudy
8:03 PM75.2 °F73.4 °F94 %29.80 in10.0 miSSW (200°)9.2 mphMostly Cloudy
8:08 PM73.4 °F71.6 °F94 %29.80 in10.0 miSSW (200°)8.1 mphMostly Cloudy
8:28 PM78.8 °F77.0 °F94 %29.81 in10.0 miSSW (200°)8.1 mphOvercast
8:38 PM73.4 °F71.6 °F94 %29.81 in10.0 miSouth (190°)9.2 mphOvercast
8:58 PM78.8 °F77.0 °F94 %29.79 in10.0 miSouth (190°)10.4 mphMostly Cloudy
9:23 PM78.8 °F77.0 °F94 %29.82 in10.0 miSouth (180°)10.4 mphMostly Cloudy
9:43 PM78.8 °F77.0 °F94 %29.82 in10.0 miSouth (190°)8.1 mphMostly Cloudy
9:48 PM78.8 °F77.0 °F94 %29.82 in10.0 miSouth (180°)9.2 mphMostly Cloudy
9:53 PM78.8 °F77.0 °F94 %29.82 in10.0 miSouth (180°)10.4 mphMostly Cloudy
9:58 PM79.0 °F76.5 °F92 %29.79 in10.0 miSouth (190°)10.4 mphOvercast
10:03 PM78.8 °F77.0 °F94 %29.82 in10.0 miSouth (190°)10.4 mphOvercast
10:28 PM78.8 °F77.0 °F94 %29.81 in10.0 miSouth (180°)10.4 mphMostly Cloudy
10:38 PM78.8 °F77.0 °F94 %29.81 in10.0 miSouth (190°)10.4 mphMostly Cloudy
10:43 PM78.8 °F77.0 °F94 %29.81 in10.0 miSouth (190°)11.5 mphScattered Clouds
10:58 PM77.0 °F75.0 °F94 %29.78 in10.0 miSouth (190°)10.4 mphPartly Cloudy
11:43 PM77.0 °F75.2 °F94 %29.81 in10.0 miSSW (200°)6.9 mphMostly Cloudy
11:48 PM77.0 °F75.2 °F94 %29.80 in10.0 miSouth (190°)6.9 mphMostly Cloudy
11:53 PM77.0 °F75.2 °F94 %29.80 in10.0 miSSW (210°)4.6 mphOvercast
11:58 PM77.4 °F75.7 °F95 %29.78 in10.0 miSouth (190°)8.1 mphOvercast
Hourly data recorded from PGUA, located miles away from Inarajan, Guam







STORIES FROM OUR PARTNERS